Temperature
27 25 24 25 25 26 26 26 26 26 27 26 25 24 24 24 24 23 23 23 22 22 22 22 22 21 21 21 20 20 20 20 19 19 19 19 18 18 18 18 18 18 18 18
25 25 26 27 27 27 27 26 26 27 27 26 25 24 24 24 24 23 23 22 22 22 22 21 21 21 21 21 20 20 20 20 19 19 19 18 18 18 18 18 18 18 18 18
25 27 28 29 28 28 27 26 27 27 27 26 25 24 24 24 24 23 23 23 22 22 21 21 21 21 21 20 20 20 20 20 19 19 18 18 18 18 18 18 17 17 18 18
26 28 29 28 28 28 27 28 28 28 25 24 25 22 23 23 22 22 22 22 22 22 21 21 21 20 20 20 20 20 20 19 19 19 18 18 18 18 18 17 17 17 17 17
27 28 28 28 29 29 28 29 28 27 25 24 24 22 22 22 22 22 22 22 22 22 21 21 21 21 20 20 20 20 19 19 19 19 18 18 18 18 18 17 17 17 17 17
27 29 29 29 29 30 29 28 26 24 22 23 23 22 22 21 22 22 22 22 22 22 21 21 21 20 20 20 20 20 19 19 19 18 18 18 18 18 18 17 17 17 17 17
27 28 29 29 28 28 27 24 23 23 21 22 22 22 21 22 23 22 22 22 22 22 21 21 20 20 20 20 20 20 19 19 18 18 18 18 18 18 18 17 17 17 17 17
25 26 28 29 28 27 27 24 23 23 22 22 22 22 22 23 23 23 23 22 22 22 21 21 21 21 20 20 20 20 19 19 18 18 18 18 18 17 17 17 17 17 17 17
25 25 28 29 30 28 27 25 23 21 22 22 22 22 22 23 23 22 22 22 22 22 21 21 21 20 20 20 20 19 19 19 18 18 18 17 17 17 17 17 17 17 17 17
25 26 27 29 29 28 27 25 22 22 22 22 22 22 21 22 22 22 21 21 21 21 21 21 20 20 20 20 20 19 19 19 19 18 18 17 17 17 17 17 17 17 16 16
25 25 26 26 27 27 27 26 22 20 20 21 21 21 23 22 22 21 21 21 21 21 21 21 21 20 20 20 19 19 19 19 18 18 18 17 17 17 17 16 16 16 16 16
24 22 23 25 26 27 26 25 23 22 22 20 20 21 23 22 22 22 22 22 22 22 21 21 21 20 20 20 19 19 19 18 18 18 18 17 17 17 16 16 16 16 16 16
24 22 22 23 23 25 25 26 24 21 20 20 20 21 22 21 21 22 22 22 22 22 21 21 21 20 20 20 19 19 19 19 18 18 18 17 17 17 16 16 16 16 16 15
24 21 21 23 23 24 25 25 25 22 20 20 21 21 21 21 20 20 21 22 22 22 21 21 20 20 20 19 19 19 19 18 18 18 18 17 17 17 16 16 16 16 15 15
22 22 23 23 24 25 25 25 25 24 22 21 21 21 21 20 20 21 21 21 21 21 21 21 20 20 19 19 19 18 18 18 18 18 17 17 17 16 16 16 16 15 15 15
20 22 23 23 24 24 24 25 25 24 24 22 21 21 20 21 21 21 21 21 21 21 21 20 20 20 19 19 18 18 18 18 17 17 17 17 16 16 16 16 16 15 15 15
20 21 21 21 22 23 22 23 24 23 23 22 21 20 20 19 20 20 20 20 20 20 20 20 20 20 19 19 18 18 17 17 17 17 17 16 16 16 16 16 15 15 15 15
20 19 18 19 21 22 22 23 23 23 22 22 21 20 20 20 21 21 21 21 20 20 20 20 20 19 19 18 18 18 17 17 17 16 16 16 16 16 15 15 15 15 15 15
19 19 18 18 20 20 22 23 23 22 21 21 21 21 21 21 20 20 21 21 21 20 20 20 19 19 19 18 18 17 17 17 16 16 16 16 16 15 15 15 15 15 15 15
18 18 18 18 20 20 21 22 23 22 20 21 20 20 20 20 18 18 20 21 20 20 20 20 19 19 18 18 17 17 17 16 16 16 16 15 15 15 15 15 15 15 14 15
19 18 18 18 18 19 20 22 23 21 19 21 21 21 20 19 19 20 20 20 20 20 20 19 19 18 18 17 17 17 16 16 16 16 15 15 15 15 15 15 14 14 14 14
18 17 17 17 18 18 20 21 20 19 21 21 21 21 21 20 20 20 20 20 20 19 19 19 18 18 17 17 17 16 16 16 15 15 15 15 15 15 15 14 14 14 14 14
17 17 16 16 17 18 20 20 21 21 21 21 21 21 21 20 20 20 20 20 19 19 19 18 18 17 17 17 16 16 16 15 15 15 15 15 15 14 14 14 14 14 14 14
18 17 16 16 17 18 20 20 21 21 21 21 21 21 20 20 20 19 19 19 19 18 18 17 17 17 16 16 16 16 15 15 15 15 14 14 14 14 14 14 14 14 14 14
17 17 16 16 17 18 19 19 20 20 20 20 20 20 20 20 19 19 19 19 18 18 17 17 17 16 16 15 15 15 15 14 14 14 14 14 14 14 14 14 14 14 14 14
16 16 15 15 16 16 18 19 19 19 19 19 19 19 19 20 19 19 18 18 18 17 17 16 16 16 15 15 15 14 14 14 14 14 14 14 14 14 14 13 13 13 13 13
Wind_Speed
2 1 5 9 10 8 6 6 5 6 5 5 5 5 8 8 8 9 10 10 10 10 9 9 10 10 9 8 8 7 6 5 4 3 2 2 1 1 1 2 3 3 3 3
2 6 13 10 8 7 5 4 4 3 4 5 4 4 6 9 10 10 11 10 9 8 7 8 8 8 9 9 8 7 6 6 5 4 3 2 2 1 1 1 1 3 3 2
8 10 9 7 6 5 5 5 5 4 1 2 5 1 2 4 4 6 8 9 10 11 11 9 8 7 8 8 8 8 6 6 5 4 3 2 2 1 1 0 1 2 2 2
6 8 6 5 6 5 5 6 4 3 2 1 3 2 3 4 4 5 7 8 9 9 10 9 8 8 8 8 7 6 6 5 5 5 4 4 3 2 3 2 2 1 1 2
6 5 4 6 8 5 6 5 1 1 2 1 2 3 4 2 4 6 6 7 8 9 10 10 9 9 8 8 7 6 5 4 4 4 5 4 3 3 2 1 1 1 1 1
8 6 4 6 6 4 2 3 5 5 5 1 3 3 4 4 8 7 6 7 8 9 9 9 8 7 6 7 6 6 6 4 4 4 4 4 4 3 2 1 2 1 1 1
7 7 4 1 2 3 4 5 4 5 5 4 3 3 5 5 6 9 10 9 9 9 9 9 8 8 7 7 7 7 6 5 4 4 4 4 4 4 4 3 3 3 2 1
3 7 5 2 5 5 3 8 7 5 5 5 2 2 4 2 4 6 9 9 9 8 9 10 10 9 8 8 8 7 7 6 5 4 3 3 3 3 2 3 3 3 3 3
5 7 7 5 4 6 3 3 8 7 2 0 1 2 3 1 4 5 7 7 8 8 9 9 8 8 8 8 8 8 8 6 6 5 3 2 2 2 2 2 2 2 2 3
8 5 7 5 4 3 5 6 6 5 3 2 2 3 4 4 4 5 6 6 6 7 7 7 8 7 7 7 7 8 8 7 6 5 4 3 2 2 2 2 2 3 3 2
4 5 5 3 1 4 1 2 5 4 5 6 4 6 6 10 8 8 7 6 7 8 9 9 8 7 7 6 6 7 7 6 5 5 4 3 3 3 2 2 2 2 1 2
2 5 2 6 6 4 4 4 6 4 4 5 5 6 4 8 7 9 8 7 7 8 7 7 8 8 8 8 7 6 6 6 6 6 4 4 3 2 2 2 2 2 2 2
3 5 2 7 7 5 2 1 3 5 4 4 5 5 1 5 6 7 8 7 7 8 7 6 5 6 7 7 7 7 6 6 6 5 5 4 3 3 3 3 3 2 2 2
5 4 6 7 8 4 4 4 1 5 3 3 5 6 3 4 6 6 6 7 7 7 8 7 6 5 6 6 7 7 6 6 5 5 5 5 5 5 5 3 3 2 2 2
5 2 3 5 5 2 2 3 1 2 5 6 7 7 8 8 7 6 5 5 7 7 6 6 6 6 6 5 5 5 6 6 6 5 5 5 4 4 3 3 3 2 2 3
4 2 1 3 3 2 3 4 1 1 2 4 4 3 4 4 5 5 5 6 7 7 7 7 6 6 5 5 5 4 4 4 5 5 5 4 3 3 4 3 3 2 3 3
2 3 2 3 4 3 3 3 1 1 1 5 4 4 5 5 7 7 7 7 8 7 6 6 6 6 6 6 6 5 4 4 5 5 5 4 4 4 4 4 3 3 3 3
5 3 3 1 2 2 6 3 4 4 3 2 3 5 7 8 8 7 7 8 7 7 7 7 6 5 4 5 5 5 4 4 4 4 4 4 4 4 4 4 4 4 3 3
6 6 3 3 2 3 5 4 1 4 1 1 5 5 5 5 4 1 3 6 8 8 8 7 7 6 4 4 4 4 4 4 4 4 4 5 5 4 4 5 5 4 4 4
5 6 5 3 3 5 6 6 1 6 0 3 4 6 6 6 3 4 4 3 4 5 5 6 5 5 5 4 4 5 4 3 4 4 5 5 5 5 5 5 5 3 3 4
3 3 3 3 3 5 6 5 3 3 6 4 4 6 6 5 6 6 4 4 4 5 5 6 6 5 5 5 5 5 4 4 5 4 4 4 4 5 4 3 3 3 3 2
4 3 2 3 3 6 5 2 2 5 3 2 3 5 5 4 4 4 4 5 5 5 5 5 6 5 4 5 5 5 5 5 4 3 3 3 3 4 3 2 2 2 3 3
3 5 5 5 6 5 2 2 2 2 2 1 2 4 6 5 4 4 4 5 5 6 6 5 6 5 5 5 6 5 5 4 3 2 2 2 2 2 2 3 2 2 2 3
3 1 3 1 2 2 2 3 3 2 1 1 3 5 6 5 4 4 4 5 5 5 5 4 5 4 4 4 5 5 5 3 3 3 2 2 2 2 1 1 2 3 3 3
3 1 2 0 2 2 3 2 2 3 2 3 2 3 5 6 4 4 4 5 5 5 5 5 5 5 4 4 4 5 5 4 3 3 3 2 3 3 2 2 3 4 4 5
3 3 3 5 6 3 4 3 1 2 1 1 1 1 2 5 5 3 4 4 5 5 5 5 5 4 3 3 3 4 4 4 4 3 3 2 2 2 2 2 2 3 4 5
Wind_Direction
255 129 229 225 213 213 219 234 237 241 205 165 183 173 176 171 163 166 171 169 174 178 172 164 163 164 157 155 154 156 152 159 146 130 131 135 156 178 186 188 182 175 183 186
359 249 240 233 227 231 240 242 254 258 210 165 178 187 175 175 176 173 171 170 169 165 163 167 165 163 160 162 163 162 161 163 162 161 158 157 156 182 193 207 195 189 186 192
218 242 246 243 246 240 238 215 215 225 235 96 114 38 184 184 157 160 168 172 167 166 166 169 166 164 160 166 172 171 166 165 169 161 133 109 75 40 33 308 231 211 193 182
248 248 250 252 250 216 250 242 207 188 116 239 138 196 261 188 152 171 181 174 169 168 165 162 160 160 165 169 167 165 165 163 163 157 153 153 163 187 214 215 215 230 201 182
261 246 236 244 242 213 220 233 202 182 134 62 23 126 275 162 178 198 190 178 165 162 161 162 166 169 166 161 158 158 153 160 163 160 164 164 176 195 201 194 185 200 216 181
253 258 227 236 252 213 185 39 26 43 64 356 262 152 258 217 202 191 180 172 168 162 159 161 165 159 157 155 156 157 154 160 161 162 162 167 172 172 157 168 180 193 199 203
292 287 276 222 320 336 85 85 32 2 1 263 267 138 234 233 189 178 176 174 168 165 160 156 160 162 164 163 165 159 155 165 170 165 170 175 176 170 172 181 186 181 183 194
235 282 270 234 198 212 201 142 156 194 229 271 330 191 255 220 170 162 164 160 154 158 161 166 171 172 172 174 172 164 161 174 180 179 184 185 178 176 187 193 179 184 197 206
189 248 264 247 229 172 199 193 168 148 177 104 308 303 330 55 110 125 136 140 154 162 164 170 173 171 175 176 178 176 172 174 176 179 174 169 170 178 197 193 175 183 200 201
170 225 275 289 357 336 170 159 94 112 153 224 269 250 220 204 182 154 143 154 158 155 161 166 173 175 176 175 175 174 173 179 181 178 182 182 181 196 212 184 193 204 212 201
159 171 287 332 238 249 346 107 116 128 153 161 214 257 222 192 185 169 170 167 162 160 164 168 170 167 165 165 169 175 175 174 175 176 180 179 184 202 202 196 210 209 212 200
143 137 238 263 257 199 164 184 154 160 227 169 173 253 244 180 172 163 165 168 160 157 154 158 163 161 161 164 167 175 180 178 184 181 175 182 186 190 202 217 222 201 200 205
97 105 51 336 334 351 14 266 167 145 134 160 169 249 233 159 158 161 163 166 159 154 144 140 144 154 165 169 169 176 179 178 177 169 171 182 183 189 217 223 224 214 199 202
111 110 159 200 231 246 279 294 236 127 147 191 201 198 209 177 169 171 171 171 166 159 152 148 150 157 167 174 174 175 181 176 169 164 171 187 195 197 213 219 217 214 210 215
97 148 206 222 237 249 279 297 261 169 185 184 206 191 205 190 173 172 161 149 147 151 154 157 160 165 168 167 168 174 178 175 168 165 177 196 205 204 203 205 213 213 222 238
79 150 352 317 305 344 352 341 23 57 110 133 134 215 218 168 135 136 144 140 145 157 161 160 167 164 165 164 164 164 168 173 166 171 188 194 195 204 207 206 209 213 231 235
81 110 94 276 291 16 325 285 136 102 102 143 172 207 158 142 158 170 167 160 163 169 170 171 172 170 170 166 161 163 168 164 165 178 186 187 190 205 213 210 210 224 231 227
144 121 140 193 25 231 247 247 139 114 72 107 139 155 160 168 172 172 171 171 177 176 176 181 177 169 168 168 163 161 151 151 163 179 190 190 189 209 223 217 221 227 227 222
150 140 133 134 184 264 298 309 164 140 23 44 131 143 146 137 109 175 200 175 182 184 179 177 177 169 159 165 165 146 145 153 162 182 196 200 198 210 223 225 227 226 222 231
68 100 127 138 160 217 251 287 219 110 9 295 134 147 146 124 135 238 221 176 171 174 166 164 162 150 154 162 156 146 162 169 191 204 207 207 204 211 220 228 225 220 220 230
35 52 134 164 192 245 265 289 65 128 231 242 174 159 154 168 196 210 188 171 169 168 161 154 151 161 176 173 158 159 174 199 214 213 211 213 215 216 215 217 212 203 202 213
173 162 184 151 178 248 292 33 141 217 221 174 161 158 153 159 163 169 162 162 160 152 150 155 158 173 185 179 170 179 203 215 210 204 209 222 224 224 218 199 214 197 186 195
170 184 179 178 203 237 268 189 206 155 128 145 152 159 145 137 156 173 177 169 170 168 166 167 168 172 188 187 178 194 222 210 197 202 220 233 228 229 210 195 202 208 204 204
312 76 107 88 263 281 1 26 34 39 138 149 155 157 149 157 167 179 183 177 174 174 170 167 162 173 201 205 195 209 216 201 189 204 220 213 201 225 225 210 204 212 212 208
271 27 79 231 275 10 1 353 354 8 42 88 93 136 150 150 167 182 191 190 189 182 178 174 176 187 205 209 209 209 208 191 191 206 219 213 204 204 220 230 228 226 228 212
256 189 176 222 231 195 237 253 281 66 57 107 93 75 153 159 177 190 189 190 190 185 182 178 181 187 203 210 228 230 212 196 195 209 217 216 213 212 212 228 273 269 245 245
Height
1490 1497 1502 1497 1494 1495 1498 1502 1503 1496 1488 1493 1497 1499 1498 1499 1501 1503 1505 1507 1508 1509 1511 1512 1514 1515 1516 1518 1519 1520 1521 1521 1522 1523 1524 1524 1524 1525 1525 1526 1526 1526 1526 1527
1496 1498 1487 1485 1486 1490 1493 1499 1499 1492 1486 1491 1498 1499 1496 1497 1500 1501 1503 1505 1507 1509 1511 1512 1513 1513 1514 1516 1517 1518 1519 1521 1521 1522 1523 1523 1524 1524 1524 1525 1525 1525 1525 1525
1496 1488 1480 1482 1485 1489 1491 1495 1495 1495 1488 1489 1497 1506 1502 1499 1500 1501 1503 1503 1504 1506 1507 1509 1512 1513 1514 1515 1516 1517 1519 1520 1521 1521 1522 1522 1523 1523 1523 1523 1523 1524 1524 1524
1487 1479 1479 1482 1484 1485 1494 1482 1482 1487 1498 1507 1502 1523 1509 1502 1502 1502 1502 1503 1503 1505 1506 1507 1510 1511 1512 1513 1515 1517 1518 1519 1519 1520 1520 1520 1521 1521 1521 1522 1522 1523 1523 1523
1485 1477 1479 1482 1479 1477 1482 1475 1480 1485 1496 1506 1505 1518 1515 1504 1506 1503 1501 1502 1502 1503 1505 1506 1508 1509 1511 1512 1514 1515 1516 1518 1518 1519 1519 1519 1519 1519 1520 1520 1521 1521 1521 1522
1477 1472 1473 1473 1470 1470 1472 1479 1485 1493 1504 1521 1511 1518 1520 1507 1502 1499 1499 1500 1500 1502 1503 1505 1507 1509 1510 1511 1512 1513 1514 1516 1517 1517 1518 1518 1518 1518 1518 1519 1519 1519 1520 1520
1483 1474 1469 1468 1474 1473 1477 1499 1519 1523 1531 1527 1509 1513 1513 1495 1491 1492 1494 1496 1497 1499 1501 1503 1505 1506 1508 1509 1510 1511 1513 1513 1514 1515 1516 1516 1516 1516 1517 1517 1517 1518 1518 1518
1495 1493 1472 1467 1472 1478 1480 1494 1519 1532 1535 1525 1512 1514 1504 1490 1489 1489 1491 1493 1495 1497 1499 1501 1502 1504 1506 1508 1509 1510 1511 1512 1513 1513 1514 1514 1515 1515 1516 1516 1516 1516 1516 1516
1492 1490 1467 1463 1462 1468 1478 1487 1491 1511 1516 1525 1520 1510 1499 1490 1489 1489 1490 1492 1493 1495 1497 1499 1502 1503 1505 1506 1508 1508 1509 1511 1511 1511 1512 1513 1513 1513 1514 1514 1515 1515 1515 1514
1476 1485 1471 1463 1462 1464 1469 1477 1496 1510 1524 1531 1522 1516 1511 1498 1492 1490 1491 1492 1493 1495 1497 1499 1501 1502 1504 1506 1507 1508 1509 1510 1510 1510 1510 1510 1510 1511 1512 1512 1512 1512 1512 1512
1469 1483 1479 1472 1474 1476 1474 1479 1490 1505 1510 1525 1532 1521 1489 1489 1487 1489 1490 1490 1491 1493 1495 1497 1499 1501 1502 1504 1505 1506 1507 1508 1508 1509 1509 1509 1509 1510 1510 1510 1509 1510 1510 1509
1467 1480 1489 1480 1468 1463 1468 1475 1486 1504 1508 1512 1521 1514 1480 1482 1483 1485 1487 1488 1489 1491 1494 1495 1497 1499 1500 1502 1503 1504 1505 1505 1506 1507 1507 1507 1508 1508 1507 1507 1507 1507 1507 1507
1467 1483 1500 1496 1486 1473 1472 1471 1476 1488 1500 1510 1516 1508 1481 1481 1483 1483 1485 1486 1488 1489 1492 1494 1496 1497 1498 1499 1500 1502 1502 1503 1504 1505 1505 1506 1506 1506 1505 1505 1504 1505 1504 1504
1463 1482 1494 1501 1493 1481 1478 1472 1472 1484 1501 1505 1501 1496 1487 1484 1483 1483 1484 1485 1486 1488 1490 1492 1493 1495 1497 1498 1498 1498 1499 1500 1501 1502 1503 1503 1503 1503 1503 1503 1502 1502 1501 1501
1464 1479 1478 1478 1474 1472 1473 1471 1470 1476 1482 1491 1491 1489 1485 1481 1481 1482 1483 1484 1485 1487 1489 1490 1492 1494 1495 1496 1496 1496 1497 1498 1499 1500 1500 1500 1501 1501 1501 1500 1500 1499 1499 1499
1467 1476 1476 1478 1471 1470 1473 1470 1470 1471 1473 1479 1482 1485 1477 1477 1478 1480 1481 1483 1484 1485 1486 1488 1490 1491 1492 1493 1494 1494 1495 1495 1496 1497 1497 1498 1498 1498 1498 1498 1498 1497 1497 1496
1471 1477 1485 1488 1477 1475 1485 1474 1472 1474 1472 1475 1483 1480 1475 1478 1478 1479 1480 1481 1483 1485 1485 1486 1487 1488 1489 1490 1491 1492 1493 1493 1494 1495 1495 1495 1495 1495 1496 1495 1495 1495 1495 1494
1469 1478 1487 1490 1487 1496 1483 1466 1466 1470 1471 1470 1472 1472 1473 1474 1475 1477 1478 1480 1481 1483 1483 1484 1485 1486 1487 1488 1489 1490 1490 1490 1491 1492 1492 1492 1493 1493 1493 1493 1492 1492 1492 1492
1461 1473 1486 1494 1496 1491 1477 1466 1466 1471 1476 1470 1470 1471 1472 1473 1475 1477 1478 1478 1479 1480 1481 1482 1483 1484 1484 1485 1486 1487 1487 1488 1488 1488 1489 1489 1490 1490 1490 1489 1489 1489 1489 1489
1463 1468 1483 1491 1494 1496 1481 1465 1461 1466 1479 1470 1468 1469 1470 1472 1479 1478 1476 1476 1477 1477 1478 1479 1480 1481 1482 1483 1484 1484 1484 1484 1484 1485 1486 1486 1487 1487 1486 1486 1486 1486 1486 1485
1474 1478 1484 1489 1492 1486 1470 1462 1461 1480 1480 1468 1467 1466 1468 1469 1471 1472 1472 1473 1474 1475 1476 1477 1478 1478 1479 1481 1481 1481 1481 1481 1482 1482 1482 1483 1483 1483 1483 1483 1483 1482 1482 1481
1477 1482 1484 1488 1492 1488 1465 1463 1469 1471 1465 1465 1465 1465 1466 1467 1467 1468 1469 1470 1471 1472 1473 1474 1474 1475 1477 1478 1478 1478 1478 1478 1479 1479 1479 1479 1480 1480 1480 1480 1479 1479 1478 1478
1471 1472 1475 1478 1479 1469 1464 1464 1464 1464 1463 1464 1464 1463 1464 1465 1465 1466 1466 1467 1468 1469 1469 1470 1471 1472 1473 1474 1475 1474 1474 1475 1475 1475 1475 1476 1476 1476 1477 1476 1476 1475 1475 1474
1466 1463 1468 1472 1469 1465 1464 1463 1462 1462 1462 1462 1462 1462 1462 1463 1463 1463 1463 1464 1465 1466 1466 1467 1468 1468 1469 1469 1470 1470 1470 1472 1472 1472 1472 1472 1473 1473 1473 1473 1472 1471 1470 1470
1466 1465 1468 1470 1466 1464 1463 1462 1462 1461 1461 1460 1460 1460 1460 1460 1460 1461 1461 1461 1462 1462 1463 1464 1465 1465 1465 1466 1466 1467 1467 1468 1468 1468 1469 1469 1469 1469 1469 1469 1469 1468 1467 1467
1464 1465 1468 1469 1464 1463 1462 1461 1460 1460 1459 1459 1459 1459 1459 1458 1458 1458 1458 1458 1459 1459 1460 1460 1461 1461 1461 1462 1462 1463 1464 1464 1465 1465 1465 1465 1466 1466 1466 1466 1465 1465 1465 1464